[[{"header":{"parameterUnit":"m.s-1","parameterCategory":1,"la1":30.2991,"la2":30.254,"lo1":-89.0895,"lo2":-89.0444,"dy":0.0017,"dx":0.0017,"nx":28,"ny":28,"refTime":"2024-04-09T21:00:00:Z","depth":0,"parameterNumber":2,"parameterNumberName":"U-component_of_WINDS"},"data":[0,0,0,0,0,0,0,0,0,0,0,0,0,0,0,0,0,0,0,0,0,0,0,0,0,0,0,0,0,0,0,0,0,0,0,0,0,0,0,0,0,0,0,0,0,0,0,0,0,0,0,0,0,0,0,0,0,0,-6.9675,-6.9677,0,-6.9835,-6.9836,-6.9838,-6.9863,-6.9861,-6.986,-6.9859,-7.0019,-7.0024,-7.003,0,0,0,0,0,0,0,0,0,0,0,0,0,-6.939,-6.9395,-6.9675,-6.9677,-6.9679,-6.9834,-6.9837,-6.9839,-6.9863,-6.9861,-6.986,-6.9858,-7.0017,-7.0023,-7.003,0,0,0,0,0,0,0,0,0,0,0,0,0,-6.9528,-6.9397,-6.9675,-6.971,-6.9715,-6.9834,-6.9837,-6.9839,-6.9863,-6.9861,-6.9859,-6.9857,-7.0015,-7.0023,-7.0031,-7.0125,0,0,-7.0057,-7.006,0,0,0,0,0,0,0,0,-6.952,-6.9538,-6.9703,-6.9708,-6.9713,-6.9827,-6.9795,-6.9935,-6.9864,-6.9807,-6.9859,-6.9856,-6.9956,-6.9969,-7.0004,-7.0133,-7.0139,-7.0057,-7.0062,-7.0066,-7.0068,0,0,0,0,0,0,0,-6.9511,-6.9532,-6.9738,-6.9705,-6.9712,-6.9717,-6.9735,-6.9821,-6.9891,-6.9812,-6.9814,-6.9833,-6.9959,-6.9996,-7.0008,-7.0142,-7.0057,-7.0065,-7.007,-7.0073,-7.0356,-7.0359,0,0,0,0,0,0,-6.9495,-6.9524,-6.9733,-6.9743,-6.961,-6.9724,-6.9744,-6.9792,-6.9891,-6.9904,-6.9834,-6.9833,-6.9982,-6.9998,-7.0013,-7.0129,-7.0066,-7.0074,-7.0079,-7.0354,-7.0357,-7.0359,0,0,0,0,0,0,-6.9489,-6.9513,-6.9727,-6.9634,-6.9662,-6.9731,-6.9786,-6.9797,-6.9834,-6.9908,-6.992,-6.9859,-6.9981,-7.0002,-7.0097,-7.0135,-7.0078,-7.0085,-7.0351,-7.0355,-7.0358,-7.0362,0,0,0,0,0,0,-6.9481,-6.9511,-6.9548,-6.9635,-6.9666,-6.9808,-6.9789,-6.9801,-6.9848,-6.9848,-6.9934,-6.9946,-6.9981,-7.0085,-7.0106,-7.0146,-7.0092,-7.0348,-7.0352,-7.0357,-7.0358,-7.0365,-7.0371,0,0,0,0,0,-6.947,-6.9541,-6.9549,-6.9574,-6.9714,-6.981,-6.9828,-6.9868,-6.9851,-6.9888,-6.9936,-6.9944,-7.0129,-7.0094,-7.0118,-7.0161,-7.0345,-7.0351,-7.0356,-7.0356,-7.0364,-7.0371,0,0,0,0,0,0,-6.9455,-6.9553,-6.9563,-6.9665,-6.9729,-6.9814,-6.9862,-6.9875,-6.9945,-6.9942,-6.9987,-7.0006,-7.01,-7.0141,-7.0101,-7.0258,-7.0235,-7.0246,-7.0227,-7.0235,-7.0241,-7.0228,-7.0099,0,0,0,0,0,-6.9464,-6.9535,-6.9617,-6.9699,-6.9731,-6.9791,-6.9835,-6.986,-6.9928,-6.9955,-7.001,-7.0075,-7.0148,-7.0194,-7.0265,-7.0366,-7.0384,-7.0407,-7.0414,-7.0418,-7.0426,-7.0482,-7.0492,-7.0378,-7.0378,-7.0378,0,0,-6.9482,-6.9545,-6.9586,-6.9697,-6.975,-6.9822,-6.9813,-6.989,-6.9943,-6.9966,-7.0059,-7.0103,-7.0178,-7.0277,-7.0323,-7.0314,-7.0462,-7.0426,-7.0429,-7.0434,-7.0489,-7.0499,-7.0509,-7.0382,-7.0381,-7.038,0,0,-6.9551,-6.9607,-6.9681,-6.9735,-6.9815,-6.9856,-6.9873,-6.9958,-6.9987,-7.0082,-7.0101,-7.0166,-7.029,-7.0343,-7.0387,-7.0479,-7.0488,-7.0502,-7.0532,-7.0586,-7.0595,-7.0603,-7.0635,-7.0646,-7.051,-7.051,-7.051,0,-6.9563,-6.9673,-6.9717,-6.9793,-6.984,-6.9867,-6.9942,-6.9992,-7.0091,-7.0124,-7.0113,-7.0271,-7.0324,-7.0434,-7.0457,-7.0492,-7.0513,-7.049,-7.0591,-7.0599,-7.0607,-7.0638,-7.065,-7.0511,-7.051,-7.051,-7.051,0,-6.9682,-6.9758,-6.9809,-6.9905,-6.9959,-7.0034,-7.0089,-7.0139,-7.0161,-7.0202,-7.0298,-7.0364,-7.0448,-7.0478,-7.0499,-7.0592,-7.0584,-7.0582,-7.0559,-7.0618,-7.0648,-7.066,-7.0512,-7.0511,-7.0511,-7.0511,0,0,-6.9743,-6.9865,-6.9882,-6.9927,-7.0019,-7.0078,-7.0155,-7.024,-7.028,-7.035,-7.0414,-7.052,-7.0519,-7.0568,-7.0597,-7.0645,-7.0712,-7.0637,-7.0639,-7.0646,-7.0818,-7.0816,-7.0829,-7.0721,-7.0723,-7.0725,-7.081,0,-6.9821,-6.9958,-7.0002,-7.0116,-7.0186,-7.0215,-7.0281,-7.0345,-7.0387,-7.0452,-7.0498,-7.0572,-7.0566,-7.0595,-7.0645,-7.0693,-7.0747,-7.0688,-7.0779,-7.0782,-7.0756,-7.0845,-7.0844,-7.0921,-7.0822,-7.0824,-7.0826,0,-6.9929,-7.0001,-7.0123,-7.0208,-7.0239,-7.0298,-7.0379,-7.0442,-7.0515,-7.0542,-7.0598,-7.0623,-7.0704,-7.0681,-7.0792,-7.0752,-7.0792,-7.0822,-7.0826,-7.0833,-7.0805,-7.0851,-7.0946,-7.0957,-7.0845,-7.0843,-7.0842,0,-6.9958,-7.0086,-7.0175,-7.0213,-7.0314,-7.0355,-7.0399,-7.0471,-7.0519,-7.059,-7.0622,-7.0702,-7.0744,-7.0805,-7.0851,-7.083,-7.0958,-7.0939,-7.0981,-7.098,-7.1003,-7.1001,-7.1103,-7.1035,-7.1035,-7.1034,-7.1034,0,-7.0039,-7.0112,-7.0189,-7.0244,-7.0327,-7.0377,-7.0457,-7.0502,-7.0566,-7.063,-7.066,-7.0719,-7.0777,-7.0844,-7.0881,-7.0967,-7.0987,-7.101,-7.1018,-7.1005,-7.1002,-7.103,-7.1024,-7.1038,-7.1037,-7.1036,-7.1036,0,-7.0083,-7.0139,-7.0237,-7.0327,-7.0351,-7.0408,-7.0484,-7.0538,-7.0582,-7.0662,-7.0684,-7.0752,-7.0833,-7.0886,-7.0988,-7.1013,-7.1106,-7.1114,-7.1081,-7.1084,-7.1123,-7.1117,-7.1244,-7.1262,-7.1184,-7.1185,-7.1185,0,-7.0129,-7.0186,-7.0282,-7.0328,-7.0372,-7.0445,-7.0495,-7.0547,-7.0598,-7.0687,-7.073,-7.0813,-7.0881,-7.1008,-7.1067,-7.1145,-7.1154,-7.1194,-7.1166,-7.1151,-7.1152,-7.1147,-7.1152,-7.1196,-7.1197,-7.1197,-7.1198,0,-7.0205,-7.023,-7.0301,-7.0383,-7.0442,-7.0508,-7.0575,-7.061,-7.0674,-7.0729,-7.0812,-7.0866,-7.0972,-7.1053,-7.1137,-7.1182,-7.12,-7.1207,-7.122,-7.1206,-7.1184,-7.1194,-7.1089,-7.1203,-7.1202,-7.1202,-7.1202,-7.1201,-7.025,-7.0302,-7.0378,-7.0456,-7.0513,-7.0574,-7.063,-7.0682,-7.0752,-7.0842,-7.087,-7.0956,-7.1029,-7.1145,-7.1192,-7.126,-7.1255,-7.1275,-7.128,-7.1283,-7.1282,-7.1176,-7.1276,-7.1276,-7.1276,-7.1276,-7.1275,0,-7.0325,-7.0376,-7.0448,-7.0541,-7.0603,-7.0618,-7.0692,-7.0743,-7.0818,-7.0886,-7.0954,-7.1049,-7.1129,-7.1195,-7.1278,-7.1319,-7.133,-7.1339,-7.1334,-7.1344,-7.1283,-7.1261,-7.1329,-7.1329,-7.1329,-7.1329,-7.1329,-7.1329,-7.0371,-7.046,-7.0494,-7.0611,-7.0661,-7.0747,-7.0788,-7.0845,-7.0899,-7.1005,-7.1072,-7.1115,-7.1183,-7.127,-7.1344,-7.1362,-7.1389,-7.1396,-7.1415,-7.1355,-7.1349,-7.1343,-7.1323,-7.1402,-7.1403,-7.1471,-7.1471,-7.1472]},{"header":{"parameterUnit":"m.s-1","parameterCategory":1,"la1":30.2991,"la2":30.254,"lo1":-89.0895,"lo2":-89.0444,"dy":0.0017,"dx":0.0017,"nx":28,"ny":28,"refTime":"2024-04-09T21:00:00:Z","depth":0,"parameterNumber":3,"parameterNumberName":"V-component_of_WINDS"},"data":[0,0,0,0,0,0,0,0,0,0,0,0,0,0,0,0,0,0,0,0,0,0,0,0,0,0,0,0,0,0,0,0,0,0,0,0,0,0,0,0,0,0,0,0,0,0,0,0,0,0,0,0,0,0,0,0,0,0,6.3492,6.3493,0,6.3532,6.3532,6.3533,6.3512,6.3511,6.351,6.3509,6.3547,6.3549,6.3551,0,0,0,0,0,0,0,0,0,0,0,0,0,6.3398,6.34,6.3492,6.3493,6.3493,6.3532,6.3532,6.3533,6.3513,6.3511,6.351,6.3509,6.3547,6.3549,6.3552,0,0,0,0,0,0,0,0,0,0,0,0,0,6.3439,6.3401,6.3492,6.3488,6.3488,6.3532,6.3533,6.3533,6.3513,6.3511,6.351,6.3508,6.3546,6.3549,6.3552,6.3602,0,0,6.3561,6.3562,0,0,0,0,0,0,0,0,6.3436,6.3442,6.3488,6.3488,6.3488,6.3516,6.3513,6.3556,6.3513,6.3503,6.3509,6.3508,6.3538,6.3542,6.3552,6.3603,6.3605,6.3561,6.3563,6.3564,6.3565,0,0,0,0,0,0,0,6.3434,6.344,6.3508,6.3489,6.3489,6.3484,6.3488,6.3521,6.3529,6.3504,6.3503,6.3508,6.3538,6.355,6.3553,6.3606,6.3561,6.3564,6.3566,6.3567,6.3703,6.3705,0,0,0,0,0,0,6.3431,6.3438,6.3507,6.3509,6.3458,6.3487,6.3491,6.3508,6.3528,6.353,6.3509,6.3507,6.3545,6.355,6.3554,6.3616,6.3564,6.3567,6.3569,6.3701,6.3703,6.3705,0,0,0,0,0,0,6.3429,6.3438,6.3505,6.3473,6.3482,6.349,6.351,6.351,6.3522,6.3532,6.3533,6.352,6.3544,6.355,6.3591,6.3617,6.3568,6.3571,6.3699,6.3702,6.3704,6.3739,0,0,0,0,0,0,6.3427,6.3437,6.3456,6.3474,6.3483,6.3541,6.3511,6.3512,6.3527,6.3525,6.3543,6.3544,6.3543,6.3587,6.3594,6.362,6.3574,6.3697,6.37,6.3703,6.3735,6.3742,6.3748,0,0,0,0,0,6.3423,6.3463,6.3457,6.3465,6.3507,6.3543,6.3548,6.3547,6.3529,6.3549,6.3556,6.3544,6.3613,6.3591,6.3599,6.3627,6.3695,6.3699,6.3703,6.3732,6.3741,6.3748,0,0,0,0,0,0,6.3446,6.3465,6.3459,6.3505,6.3523,6.3539,6.3563,6.3556,6.3578,6.3574,6.3571,6.3576,6.3619,6.3626,6.3602,6.3678,6.3651,6.3657,6.3671,6.3679,6.3685,6.3683,6.3576,0,0,0,0,0,6.3456,6.3484,6.3499,6.3539,6.3548,6.3554,6.357,6.3568,6.3586,6.3592,6.3602,6.362,6.3646,6.3663,6.3687,6.3736,6.3741,6.376,6.3766,6.3771,6.3777,6.3806,6.3815,6.3719,6.3719,6.3719,0,0,6.3478,6.3492,6.3509,6.3544,6.3557,6.3586,6.3561,6.3591,6.3613,6.3597,6.3637,6.3645,6.3664,6.371,6.3731,6.3718,6.3805,6.3777,6.3781,6.3783,6.3811,6.382,6.3829,6.3721,6.3721,6.372,0,0,6.3533,6.3546,6.3581,6.3596,6.3618,6.3622,6.3631,6.3649,6.3655,6.3695,6.3684,6.371,6.3754,6.3769,6.3782,6.3846,6.3836,6.3854,6.3888,6.3917,6.3924,6.3931,6.3956,6.3964,6.3859,6.3859,6.3859,0,6.3557,6.3601,6.36,6.3634,6.365,6.3638,6.3675,6.3689,6.3716,6.3728,6.3713,6.3771,6.3782,6.3833,6.3849,6.386,6.3871,6.3852,6.3923,6.393,6.3936,6.396,6.3969,6.3861,6.3861,6.3861,6.386,0,6.363,6.3661,6.3687,6.3717,6.3736,6.377,6.3776,6.3795,6.3792,6.3799,6.3841,6.3855,6.3883,6.3895,6.3891,6.3946,6.3938,6.3923,6.3897,6.3948,6.397,6.3979,6.3864,6.3863,6.3863,6.3862,0,0,6.3699,6.373,6.374,6.3755,6.3778,6.3802,6.3837,6.3866,6.3884,6.3904,6.3934,6.3973,6.396,6.3976,6.3974,6.3999,6.4051,6.3981,6.3982,6.3995,6.4115,6.4127,6.4137,6.4045,6.4047,6.4048,6.4114,0,6.3757,6.3819,6.3821,6.3878,6.3908,6.3898,6.3929,6.3947,6.3955,6.3981,6.3988,6.4017,6.3997,6.4007,6.4031,6.404,6.4076,6.4035,6.4073,6.4075,6.407,6.4148,6.416,6.4222,6.4122,6.4124,6.4125,0,6.3833,6.3858,6.3918,6.3941,6.3953,6.3981,6.4009,6.4034,6.4055,6.4059,6.4077,6.4073,6.4109,6.4082,6.4132,6.4105,6.4121,6.4128,6.413,6.4134,6.4103,6.4156,6.4241,6.4251,6.4138,6.4137,6.4136,0,6.388,6.3928,6.3971,6.3983,6.401,6.403,6.4042,6.4062,6.408,6.4105,6.4117,6.4145,6.416,6.4182,6.4185,6.4165,6.4237,6.4209,6.4242,6.4242,6.4258,6.4257,6.4348,6.4266,6.4266,6.4266,6.4266,0,6.3945,6.3983,6.3993,6.402,6.4062,6.4064,6.4106,6.4117,6.4135,6.4164,6.4156,6.4183,6.4186,6.4214,6.4216,6.4259,6.4266,6.427,6.4271,6.4272,6.4272,6.4283,6.4279,6.4268,6.4268,6.4267,6.4267,0,6.4004,6.4013,6.406,6.4082,6.4089,6.4119,6.4138,6.4164,6.4172,6.4208,6.4217,6.4228,6.4261,6.4267,6.4305,6.4307,6.4359,6.4354,6.4352,6.4352,6.4385,6.4383,6.4488,6.4503,6.4409,6.441,6.4411,0,6.4046,6.4075,6.4102,6.4122,6.4135,6.4166,6.4186,6.4189,6.421,6.4238,6.4261,6.4293,6.432,6.4373,6.4384,6.4414,6.4411,6.4446,6.4415,6.4416,6.4413,6.4412,6.4416,6.4452,6.4453,6.4453,6.4454,0,6.412,6.4124,6.4152,6.4184,6.4208,6.4232,6.4255,6.4271,6.4278,6.4301,6.4336,6.4357,6.4397,6.443,6.446,6.4472,6.4465,6.4464,6.4473,6.4475,6.4474,6.4477,6.437,6.4461,6.4461,6.446,6.446,6.4459,6.4173,6.42,6.4224,6.4257,6.4275,6.4298,6.4324,6.4336,6.4365,6.4399,6.4399,6.4438,6.446,6.45,6.4514,6.4544,6.4533,6.4546,6.455,6.4553,6.4558,6.4468,6.4549,6.4549,6.4549,6.4549,6.4549,0,6.4249,6.4264,6.4295,6.4329,6.4355,6.4347,6.4373,6.4395,6.443,6.4452,6.4479,6.4519,6.4552,6.4567,6.4599,6.462,6.4618,6.4629,6.4628,6.4631,6.4565,6.4554,6.463,6.463,6.463,6.463,6.463,6.463,6.4291,6.4337,6.4344,6.4399,6.4414,6.4453,6.4468,6.4489,6.4507,6.4554,6.4581,6.4591,6.4611,6.4645,6.4675,6.4678,6.4691,6.4704,6.4706,6.4644,6.4636,6.4628,6.4618,6.4706,6.4706,6.477,6.4771,6.4771]}]]